Hlavní strana
METAR-TAF:

METAR-TAF

Letiště :

Centralia Municipal Airport

Centralia, Illinois, Spojené státy americké

zeměpisná šířka: 38-30-53N, zeměpisná délka: 089-05-32W, výška: 163 m

Aktuální stav počasí

Zpráva byla vytvořena před 14 minutami, v 11:55 UTC
Jižní vítr 5 kt
Teplota 2°C
Vlhkost vzduchu 100%
Tlak 1011 hPa
Viditelnost: 11.3 km
Zataženo ve výšce 500 ft

METAR: KENL 241155Z AUTO 17005KT 7SM OVC005 02/02 A2984 RMK AO2 70031 T00180018 10025 20011

Čas: 06:09 (12:09 UTC)


TAF: chybějící

Stav a předpovědi počasí z více než 4 000 letišť (zprávy METAR a TAF).

Červené a žluté tečky na mapě představují dostupné meteorologické stanice.

Když kurzor umístíte na tečku, zobrazí se název stanice.

Pak kliknutím zobrazíte stav a předpověď počasí.

Chcete-li změnit mapu, kliknutím na zelené tlačítko se znaménkem +mapu přiblížíte, kliknutím na zelené tlačítko se znaménkem – mapu oddálíte a kliknutím na zelené šipky přejdete na sousední mapy.


METAR-TAF: